COSMOS 1275 DEB, 13807

Orbit data source: Space-Track

COSMOS 1275 DEB, 13807 is space debris in LEO originally from a launch on Thu, 04 Jun 1981 UTC launched from the Plesetsk Missile And Space Complex (PKMTR). Debris objects in space refer to the collection of defunct objects orbiting the Earth. Examples of debris include non-operational satellites, rocket bodies, and fragments generated from explosions, collisions, or faulty payload assembly.

Loading next visibility...
Identifier
13807, 1981-053HB
Orbit
LEO
Country
Flag of CISCIS
Related business
Manufacturer
Unknown
Mission
Spacecraft
Bus & Motor
Unknown
Mass
Unknown
Launch date (UTC)
1981-06-04 (45 years ago)
Launch vehicle
Unknown
Launch site
Plesetsk Missile And Space Complex (PKMTR)
Object type
Payload
Rocket body
Debris
Shape & HBR
Unknown shape, 0.1 m
Radar Cross Section
Small (<0.1 m²)

Expand to show TLE details & history
Last TLE update: 11 hours ago

TLE from 11 hours ago
0 COSMOS 1275 DEB
1 13807U 81053HB  25351.87780180  .00002844  00000-0  10863-2 0  9999
2 13807  82.9478 172.6782 0011603 244.9892 115.0091 14.30432340953717
Epoch: 2025-12-17T21:04Z
TLE epoch observation values (Epoch: 2025-12-17T21:04:02.075Z)
Latitude
0.00002°
Longitude
129.92821°
Altitude
796.788 km
Speed
7.453 km/s
True Right ascension
11h 30m 42s
True Declination
0° 00' 00"
Sunlit
Object was in daylight at epoch
Visualization orbit readout
Latitude
Unknown
Longitude
Unknown
Altitude
Unknown
Speed
Unknown
Apparent Right ascension
Unknown
Apparent Declination
Unknown
Sunlit
N/A
Visualization observer readout
Local Sidereal Time
07:00:51
Azimuth
Unknown
Elevation
Unknown
Doppler factor
Unknown
Orbital elements
Apogee altitude
795.672 km
Perigee altitude
779.044 km
Semi-major axis
7,165.495 km
Eccentricity
0.00116
Inclination
82.9478°
RAAN
172.6782°
Arg. of periapsis
244.9892°
True anomaly
115.12952°
Mean anomaly
115.0091°
Eccentric anomaly
115.06932°
Mean motion
3.57828 °/min
Orbital period
100.61 mins
BSTAR
0.0010863
Loading maneuver chart data...
Computing Atmospheric mass density...

Documentation

Showing up to 5 results
|